Regional Weather Roundup
Issued by NWS Lake Charles, LA

Home | Current Version | Previous Version | Text Only | Print | Product List | Glossary On
Versions: 1 2 3 4 5 6 7 8 9 10 11 12 13 14 15 16 17 18 19 20 21 22 23 24 25 26 27 28 29 30 31 32 33 34 35 36 37 38 39 40 41 42 43 44 45 46 47 48 49 50
000
ASUS44 KLCH 060310
RWRLCH
RWRLCH
REGIONAL WEATHER ROUNDUP
NATIONAL WEATHER SERVICE LAKE CHARLES LA
1000 PM CDT TUE MAY 05 2015

Note: "fair" indicates few or no clouds below 12,000 feet with no
significant weather and/or obstructions to visibility.


ACROSS SOUTHEAST TEXAS

CITY           SKY/WX    TMP DP  RH WIND       PRES   REMARKS
BEAUMONT       MOCLDY    75  68  78 SE14      30.04R
BEAUMONT CITY    N/A     73  67  83 SE8       30.04S
ORANGE         CLEAR     74  65  75 E9        30.07R
JASPER         NOT AVBL
$$

ACROSS CENTRAL LOUISIANA

CITY           SKY/WX    TMP DP  RH WIND       PRES   REMARKS
LEESVILLE      CLEAR     73  63  72 SE7       30.06R
FULLERTON        N/A     75  61  61 VRB5      30.06R
ALEXANDRIA INT MOCLDY    70  67  90 CALM      30.07R
ESLER FIELD    CLEAR     75  59  57 SE9       30.09R
DERIDDER       MOCLDY    73  64  73 SE3       30.08R
OAKDALE        CLEAR     65  64  96 CALM      30.09R
OPELOUSAS        N/A    N/A N/A N/A E6        30.09R
$$

ACROSS SOUTHWEST AND SOUTH CENTRAL LOUISIANA

CITY           SKY/WX    TMP DP  RH WIND       PRES   REMARKS
SULPHUR        CLEAR     74  67  77 SE10      30.07R
LAKE CHARLES   CLEAR     73  66  78 SE10      30.06R
CHENNAULT INT  CLEAR     70  66  88 SE7       30.07
CAMERON PHI    MOCLDY    75  68  78 SE22G29   30.09R
DEQUINCY         N/A     71  69  91 SE7       30.06R
JENNINGS         N/A     73  64  74 SE6       30.08R
LAFAYETTE      CLEAR     73  62  68 VRB3      30.09R
NEW IBERIA       N/A    N/A N/A N/A MISG      30.10R
ABBEVILLE        N/A     71  63  75 E7        30.09R
PATTERSON      CLEAR    N/A N/A N/A E9        30.10S
SALT POINT       N/A     71  65  81 SE6       30.08R
$$

SELECTED SITES ACROSS THE REGION

CITY           SKY/WX    TMP DP  RH WIND       PRES   REMARKS
HOUSTON BUSH   CLOUDY    75  68  78 SE14      30.01R
HOUSTON HOBBY  MOCLDY    76  67  73 SE14G20   30.00R
GALVESTON      CLOUDY    75  71  87 SE17G23   30.03R
COLLEGE STAT   CLOUDY    75  67  76 SE13      29.97R
CONROE         CLOUDY    73  65  75 SE12      30.02R
HUNTSVILLE     CLOUDY    73  66  78 SE6       30.00R
LUFKIN           N/A     74  64  71 SE8       30.03R
SHREVEPORT     MOCLDY    75  63  66 SE10      30.04R
MONROE         CLEAR     73  61  65 VRB3      30.10R
NATCHEZ MS     CLEAR     68  59  73 SE7       30.12R
BATON ROUGE    CLEAR     68  61  78 E6        30.12R
N.O. INTL ARPT PTCLDY    72  61  68 SE10      30.12R
SLIDELL        CLEAR     64  62  93 CALM      30.13R
$$

MARINE REPORTS

STATION/POSITION TIME  TEMP    WIND        PRES    VSBY  WAVE
                       AIR SEA DIR/SP/G                  HT/PER
                 (UTC) (F)     (DEG/KT/KT) (MB)    (MI)  (FT/S)
BUOY 30 S HIGH I 0250   76 75  120/ 17/ 21 1015.9R         5/ 5
SEA RIM ST PARK  0300   75     120/ 18/ 25 1017.9R
PORT ARTHUR      0200      74  120/  9/ 13 1016.9R
SABINE PASS N    0200   76 76  140/ 19/ 23 1016.9R
TEXAS POINT      NOT AVBL
CALCASIEU PASS   0200   76 77  140/ 20/ 26   N/A
LK CHARLES BEACH 0200   73 71              1017.8R
MARSH ISLAND     0200   76     120/ 22/ 25   N/A           0
FRESH WATER LOCK 0200   75 78  110/ 15/ 21 1017.8R
AMERADA PASS     0200   73 73  110/  7/ 13 1018.7R
$$


USA.gov is the U.S. government's official web portal to all federal, state and local government web resources and services.